• In Czech Republic
  • List of Countries
  • For 7 days
  • Water Temperature
  • Satellite Maps
  • Weather Map
  • Weather Widgets
  • user-avatar
    Login

    Hourly Weather Klagenfurt

    Today, 28 June, Wednesday

    Time Temperature Precipitation Wind Pressure Humidity
    00:00 +14°C° 0 mm 1 mps 685 mmHg 86%
    01:00 +14°C° 0 mm 1 mps 684 mmHg 85%
    02:00 +14°C° 0 mm 1 mps 684 mmHg 85%
    03:00 +14°C° 0 mm 1 mps 684 mmHg 85%
    04:00 +14°C° 0 mm 1 mps 684 mmHg 85%
    05:00 +16°C° 0 mm 1 mps 684 mmHg 79%
    06:00 +19°C° 0 mm 1 mps 684 mmHg 74%
    07:00 +21°C° 0 mm 1 mps 684 mmHg 66%
    08:00 +22°C° 0.3 mm 1 mps 684 mmHg 64%
    09:00 +24°C° 0.3 mm 2 mps 684 mmHg 62%
    10:00 +25°C° 0.3 mm 3 mps 684 mmHg 60%
    11:00 +25°C° 0.7 mm 3 mps 684 mmHg 61%
    12:00 +25°C° 0.7 mm 4 mps 683 mmHg 63%
    13:00 +25°C° 0 mm 3 mps 684 mmHg 67%
    14:00 +24°C° 2 mm 3 mps 683 mmHg 73%
    15:00 +22°C° 2 mm 3 mps 682 mmHg 79%
    16:00 +21°C° 2 mm 2 mps 682 mmHg 85%
    17:00 +20°C° 4.4 mm 2 mps 681 mmHg 88%
    18:00 +19°C° 4.4 mm 2 mps 681 mmHg 91%
    19:00 +19°C° 4.4 mm 1 mps 680 mmHg 94%
    20:00 +18°C° 3.6 mm 1 mps 680 mmHg 95%
    21:00 +18°C° 3.6 mm 1 mps 680 mmHg 96%
    22:00 +16°C° 3.6 mm 1 mps 679 mmHg 97%
    23:00 +16°C° 1.7 mm 1 mps 679 mmHg 97%

    Tomorrow, 29 June, Thursday

    Time Temperature Precipitation Wind Pressure Humidity
    00:00 +16°C° 1.7 mm 1 mps 679 mmHg 97%
    01:00 +15°C° 1.7 mm 1 mps 678 mmHg 97%
    02:00 +15°C° 1.4 mm 1 mps 678 mmHg 97%
    03:00 +15°C° 1.4 mm 1 mps 678 mmHg 97%
    04:00 +14°C° 1.4 mm 1 mps 678 mmHg 97%
    05:00 +15°C° 0.2 mm 2 mps 678 mmHg 96%
    06:00 +16°C° 0.2 mm 2 mps 678 mmHg 94%
    07:00 +17°C° 0.2 mm 2 mps 679 mmHg 92%
    08:00 +18°C° 0.2 mm 3 mps 679 mmHg 84%
    09:00 +19°C° 0.2 mm 3 mps 680 mmHg 75%
    10:00 +20°C° 0.2 mm 3 mps 681 mmHg 66%
    11:00 +21°C° 0.4 mm 4 mps 681 mmHg 66%
    12:00 +21°C° 0.4 mm 4 mps 681 mmHg 65%
    13:00 +21°C° 0.4 mm 4 mps 682 mmHg 64%
    14:00 +21°C° 0.3 mm 4 mps 682 mmHg 62%
    15:00 +21°C° 0.3 mm 4 mps 682 mmHg 60%
    16:00 +22°C° 0.3 mm 4 mps 682 mmHg 57%
    17:00 +21°C° 0.1 mm 4 mps 682 mmHg 62%
    18:00 +19°C° 0.1 mm 3 mps 682 mmHg 66%
    19:00 +18°C° 0.1 mm 2 mps 682 mmHg 71%
    20:00 +17°C° 0 mm 2 mps 682 mmHg 75%
    21:00 +15°C° 0 mm 2 mps 682 mmHg 78%
    22:00 +14°C° 0 mm 2 mps 683 mmHg 82%
    23:00 +13°C° 0 mm 2 mps 683 mmHg 83%

    Day after tomorrow, 30 June, Friday

    Time Temperature Precipitation Wind Pressure Humidity
    00:00 +13°C° 0 mm 2 mps 683 mmHg 85%
    01:00 +12°C° 0 mm 2 mps 683 mmHg 86%
    02:00 +12°C° 0 mm 2 mps 683 mmHg 87%
    03:00 +12°C° 0 mm 2 mps 683 mmHg 88%
    04:00 +10°C° 0 mm 2 mps 683 mmHg 89%
    05:00 +13°C° 0 mm 2 mps 684 mmHg 84%
    06:00 +15°C° 0 mm 2 mps 685 mmHg 79%
    07:00 +17°C° 0 mm 2 mps 686 mmHg 74%
    08:00 +18°C° 0 mm 3 mps 686 mmHg 66%
    09:00 +19°C° 0 mm 4 mps 687 mmHg 58%
    10:00 +21°C° 0 mm 4 mps 687 mmHg 50%
    11:00 +21°C° 0.1 mm 4 mps 687 mmHg 50%
    12:00 +21°C° 0.1 mm 5 mps 687 mmHg 49%
    13:00 +21°C° 0.1 mm 5 mps 687 mmHg 49%
    14:00 +20°C° 0.1 mm 5 mps 687 mmHg 51%
    15:00 +20°C° 0.1 mm 4 mps 687 mmHg 52%
    16:00 +19°C° 0.1 mm 4 mps 687 mmHg 54%
    17:00 +18°C° 0.1 mm 4 mps 687 mmHg 61%
    18:00 +17°C° 0.1 mm 3 mps 687 mmHg 68%
    19:00 +16°C° 0.1 mm 2 mps 686 mmHg 75%
    20:00 +15°C° 0.2 mm 2 mps 686 mmHg 80%
    21:00 +14°C° 0.2 mm 2 mps 686 mmHg 86%
    22:00 +13°C° 0.2 mm 1 mps 686 mmHg 91%
    23:00 +13°C° 0.4 mm 1 mps 686 mmHg 92%

    1 July, Saturday

    Time Temperature Precipitation Wind Pressure Humidity
    00:00 +13°C° 0.4 mm 1 mps 686 mmHg 94%
    01:00 +12°C° 0.4 mm 1 mps 686 mmHg 95%
    02:00 +12°C° 0.3 mm 1 mps 686 mmHg 95%
    03:00 +12°C° 0.3 mm 1 mps 686 mmHg 96%
    04:00 +11°C° 0.3 mm 1 mps 686 mmHg 96%
    05:00 +12°C° 0.1 mm 1 mps 686 mmHg 93%
    06:00 +13°C° 0.1 mm 1 mps 687 mmHg 90%
    07:00 +15°C° 0.1 mm 1 mps 687 mmHg 87%
    08:00 +18°C° 0 mm 1 mps 688 mmHg 75%
    09:00 +20°C° 0 mm 1 mps 688 mmHg 64%
    10:00 +22°C° 0 mm 1 mps 689 mmHg 53%
    11:00 +22°C° 0.2 mm 1 mps 689 mmHg 54%
    12:00 +21°C° 0.2 mm 2 mps 689 mmHg 56%
    13:00 +21°C° 0.2 mm 2 mps 688 mmHg 57%
    14:00 +21°C° 0.5 mm 2 mps 688 mmHg 59%
    15:00 +20°C° 0.5 mm 2 mps 688 mmHg 62%
    16:00 +20°C° 0.5 mm 2 mps 688 mmHg 64%
    17:00 +19°C° 0.4 mm 2 mps 688 mmHg 71%
    18:00 +19°C° 0.4 mm 1 mps 687 mmHg 79%
    19:00 +18°C° 0.4 mm 1 mps 687 mmHg 86%
    20:00 +15°C° 0.1 mm 1 mps 687 mmHg 88%
    21:00 +13°C° 0.1 mm 1 mps 687 mmHg 91%
    22:00 +11°C° 0.1 mm 1 mps 687 mmHg 94%
    23:00 +10°C° 0.1 mm 1 mps 687 mmHg 94%

    2 July, Sunday

    Time Temperature Precipitation Wind Pressure Humidity
    00:00 +10°C° 0.1 mm 1 mps 687 mmHg 94%
    01:00 +10°C° 0.1 mm 1 mps 687 mmHg 94%
    02:00 +10°C° 0 mm 1 mps 687 mmHg 94%
    03:00 +10°C° 0 mm 1 mps 687 mmHg 94%
    04:00 +10°C° 0 mm 1 mps 687 mmHg 94%
    05:00 +12°C° 0 mm 1 mps 688 mmHg 89%
    06:00 +13°C° 0 mm 1 mps 688 mmHg 85%
    07:00 +15°C° 0 mm 1 mps 689 mmHg 80%
    08:00 +18°C° 0 mm 1 mps 689 mmHg 71%
    09:00 +20°C° 0 mm 1 mps 690 mmHg 62%
    10:00 +22°C° 0 mm 1 mps 690 mmHg 52%
    11:00 +22°C° 0.1 mm 1 mps 691 mmHg 50%
    12:00 +23°C° 0.1 mm 1 mps 691 mmHg 48%
    13:00 +23°C° 0.1 mm 2 mps 691 mmHg 46%
    14:00 +23°C° 0.1 mm 2 mps 691 mmHg 48%
    15:00 +21°C° 0.1 mm 2 mps 691 mmHg 51%
    16:00 +21°C° 0.1 mm 2 mps 691 mmHg 53%
    17:00 +20°C° 0.1 mm 2 mps 691 mmHg 60%
    18:00 +19°C° 0.1 mm 1 mps 691 mmHg 68%
    19:00 +18°C° 0.1 mm 1 mps 691 mmHg 75%
    20:00 +15°C° 0 mm 1 mps 691 mmHg 79%
    21:00 +13°C° 0 mm 1 mps 692 mmHg 82%
    22:00 +11°C° 0 mm 1 mps 692 mmHg 86%
    23:00 +11°C° 0 mm 1 mps 691 mmHg 88%

    3 July, Monday

    Time Temperature Precipitation Wind Pressure Humidity
    00:00 +10°C° 0 mm 1 mps 691 mmHg 89%
    01:00 +9°C° 0 mm 1 mps 691 mmHg 91%
    02:00 +9°C° 0 mm 1 mps 691 mmHg 91%
    03:00 +8°C° 0 mm 1 mps 691 mmHg 90%
    04:00 +8°C° 0 mm 1 mps 691 mmHg 90%
    05:00 +10°C° 0 mm 1 mps 692 mmHg 83%
    06:00 +13°C° 0 mm 1 mps 692 mmHg 76%
    07:00 +15°C° 0 mm 1 mps 693 mmHg 69%
    08:00 +18°C° 0 mm 1 mps 693 mmHg 62%
    09:00 +20°C° 0 mm 1 mps 694 mmHg 55%
    10:00 +23°C° 0 mm 1 mps 694 mmHg 48%
    11:00 +23°C° 0.1 mm 1 mps 694 mmHg 47%
    12:00 +24°C° 0.1 mm 1 mps 694 mmHg 47%
    13:00 +24°C° 0.1 mm 1 mps 694 mmHg 46%
    14:00 +24°C° 0.1 mm 1 mps 693 mmHg 48%
    15:00 +24°C° 0.1 mm 1 mps 693 mmHg 51%
    16:00 +23°C° 0.1 mm 1 mps 693 mmHg 54%
    17:00 +22°C° 0.2 mm 1 mps 693 mmHg 64%
    18:00 +20°C° 0.2 mm 1 mps 692 mmHg 74%
    19:00 +19°C° 0.2 mm 1 mps 692 mmHg 84%
    20:00 +16°C° 0.2 mm 1 mps 692 mmHg 87%
    21:00 +14°C° 0.2 mm 1 mps 692 mmHg 91%
    22:00 +11°C° 0.2 mm 1 mps 692 mmHg 94%
    23:00 +11°C° 0.1 mm 1 mps 692 mmHg 94%
    Show more